| time (UTC) | temp F | wind direction | speed MPH | gust MPH | rain 1hr in | rain 24hr in | rain mn in | humidity % | barometer mb |
| 20260508033408 | 66 | 45 | 6.0 | 6.0 | 0.00 | 0.00 | 0.00 | 56 | 1008.0 |
| 20260508032908 | 66 | 45 | 2.0 | 2.0 | 0.00 | 0.00 | 0.00 | 57 | 1008.0 |
| 20260508032408 | 66 | 45 | 0.0 | 0.0 | 0.00 | 0.00 | 0.00 | 56 | 1008.0 |
| 20260508031911 | 66 | 68 | 2.0 | 2.0 | 0.00 | 0.00 | 0.00 | 57 | 1008.0 |
| 20260508031408 | 66 | 68 | 7.0 | 7.0 | 0.00 | 0.00 | 0.00 | 57 | 1008.0 |
| 20260508030909 | 66 | 68 | 3.0 | 3.0 | 0.00 | 0.00 | 0.00 | 61 | 1008.0 |
| 20260508030408 | 66 | 248 | 2.0 | 2.0 | 0.00 | 0.00 | 0.00 | 60 | 1008.0 |
| 20260508025909 | 66 | 248 | 3.0 | 3.0 | 0.00 | 0.00 | 0.00 | 60 | 1007.0 |
| 20260508025409 | 66 | 112 | 1.0 | 1.0 | 0.00 | 0.00 | 0.00 | 60 | 1007.0 |
| 20260508024908 | 66 | 45 | 7.0 | 7.0 | 0.00 | 0.00 | 0.00 | 59 | 1007.0 |
| 20260508024408 | 65 | 45 | 7.0 | 8.0 | 0.00 | 0.00 | 0.00 | 59 | 1007.0 |
| 20260508023908 | 65 | 68 | 5.0 | 6.0 | 0.00 | 0.00 | 0.00 | 60 | 1007.0 |
| 20260508023409 | 65 | 22 | 4.0 | 5.0 | 0.00 | 0.00 | 0.00 | 60 | 1007.0 |
| 20260508022908 | 65 | 22 | 6.0 | 7.0 | 0.00 | 0.00 | 0.00 | 60 | 1006.0 |
| 20260508022408 | 65 | 68 | 5.0 | 6.0 | 0.00 | 0.00 | 0.00 | 60 | 1006.0 |
| 20260508021910 | 66 | 45 | 9.0 | 10.0 | 0.00 | 0.00 | 0.00 | 57 | 1006.0 |
| 20260508021408 | 66 | 68 | 8.0 | 9.0 | 0.00 | 0.00 | 0.00 | 56 | 1007.0 |
| 20260508020908 | 66 | 68 | 9.0 | 11.0 | 0.00 | 0.00 | 0.00 | 54 | 1007.0 |
| 20260508020412 | 65 | 68 | 5.0 | 6.0 | 0.00 | 0.00 | 0.00 | 56 | 1007.0 |
| 20260508015908 | 65 | 112 | 7.0 | 7.0 | 0.00 | 0.00 | 0.00 | 57 | 1007.0 |
| 20260508015408 | 65 | 68 | 6.0 | 6.0 | 0.00 | 0.00 | 0.00 | 58 | 1007.0 |
| 20260508014908 | 65 | 112 | 7.0 | 7.0 | 0.00 | 0.00 | 0.00 | 60 | 1007.0 |
| 20260508014409 | 65 | 68 | 6.0 | 7.0 | 0.00 | 0.00 | 0.00 | 61 | 1007.0 |
| 20260508013908 | 65 | 68 | 6.0 | 6.0 | 0.00 | 0.00 | 0.00 | 60 | 1007.0 |
| 20260508013408 | 66 | 45 | 5.0 | 5.0 | 0.00 | 0.00 | 0.00 | 60 | 1007.0 |
| 20260508012908 | 66 | 68 | 7.0 | 8.0 | 0.00 | 0.00 | 0.00 | 60 | 1007.0 |
| 20260508012408 | 66 | 68 | 6.0 | 7.0 | 0.00 | 0.00 | 0.00 | 59 | 1007.0 |
| 20260508011908 | 66 | 68 | 8.0 | 9.0 | 0.00 | 0.00 | 0.00 | 57 | 1007.0 |
| 20260508011409 | 66 | 45 | 6.0 | 6.0 | 0.00 | 0.00 | 0.00 | 58 | 1007.0 |
| 20260508010908 | 66 | 68 | 9.0 | 10.0 | 0.00 | 0.00 | 0.00 | 59 | 1007.0 |
| 20260508010408 | 66 | 68 | 7.0 | 8.0 | 0.00 | 0.00 | 0.00 | 58 | 1007.0 |
| 20260508005908 | 65 | 68 | 9.0 | 9.0 | 0.00 | 0.00 | 0.00 | 59 | 1007.0 |
| 20260508005408 | 65 | 22 | 7.0 | 8.0 | 0.00 | 0.00 | 0.00 | 59 | 1007.0 |
| 20260508004909 | 65 | 68 | 6.0 | 7.0 | 0.00 | 0.00 | 0.00 | 60 | 1007.0 |
| 20260508004408 | 65 | 68 | 5.0 | 5.0 | 0.00 | 0.00 | 0.00 | 59 | 1007.0 |
| 20260508003908 | 65 | 68 | 4.0 | 5.0 | 0.00 | 0.00 | 0.00 | 59 | 1007.0 |
| 20260508003409 | 65 | 68 | 7.0 | 7.0 | 0.00 | 0.00 | 0.00 | 60 | 1007.0 |
| 20260508002908 | 65 | 68 | 6.0 | 7.0 | 0.00 | 0.00 | 0.00 | 59 | 1008.0 |
| 20260508002409 | 65 | 68 | 4.0 | 5.0 | 0.00 | 0.00 | 0.00 | 59 | 1008.0 |
| 20260508001908 | 65 | 68 | 8.0 | 9.0 | 0.00 | 0.00 | 0.00 | 61 | 1008.0 |
| 20260508001408 | 65 | 68 | 6.0 | 7.0 | 0.00 | 0.00 | 0.00 | 61 | 1008.0 |
| 20260508000908 | 65 | 68 | 8.0 | 9.0 | 0.00 | 0.00 | 0.00 | 60 | 1008.0 |
| 20260508000408 | 65 | 68 | 5.0 | 5.0 | 0.00 | 0.00 | 0.00 | 59 | 1008.0 |
| 20260507235909 | 65 | 68 | 4.0 | 4.0 | 0.00 | 0.00 | 0.00 | 60 | 1009.0 |
| 20260507235409 | 65 | 68 | 5.0 | 5.0 | 0.00 | 0.00 | 0.00 | 61 | 1009.0 |
| 20260507234910 | 65 | 68 | 5.0 | 5.0 | 0.00 | 0.00 | 0.00 | 61 | 1009.0 |
| 20260507234408 | 64 | 45 | 8.0 | 8.0 | 0.00 | 0.00 | 0.00 | 62 | 1009.0 |
| 20260507233908 | 64 | 68 | 3.0 | 3.0 | 0.00 | 0.00 | 0.00 | 63 | 1009.0 |
| 20260507233409 | 64 | 68 | 7.0 | 7.0 | 0.00 | 0.00 | 0.00 | 61 | 1009.0 |
| 20260507232908 | 65 | 68 | 2.0 | 2.0 | 0.00 | 0.00 | 0.00 | 63 | 1009.0 |
| 20260507232409 | 65 | 68 | 6.0 | 6.0 | 0.00 | 0.00 | 0.00 | 63 | 1009.0 |
| 20260507231908 | 65 | 68 | 8.0 | 8.0 | 0.00 | 0.00 | 0.00 | 62 | 1009.0 |
| 20260507231409 | 65 | 45 | 3.0 | 4.0 | 0.00 | 0.00 | 0.00 | 62 | 1009.0 |
| 20260507230908 | 65 | 45 | 5.0 | 5.0 | 0.00 | 0.00 | 0.00 | 62 | 1009.0 |
| 20260507230409 | 65 | 45 | 6.0 | 6.0 | 0.00 | 0.00 | 0.00 | 60 | 1009.0 |
| 20260507225908 | 65 | 68 | 4.0 | 5.0 | 0.00 | 0.00 | 0.00 | 57 | 1009.0 |
| 20260507225409 | 65 | 68 | 1.0 | 1.0 | 0.00 | 0.00 | 0.00 | 55 | 1009.0 |
| 20260507224908 | 65 | 68 | 4.0 | 4.0 | 0.00 | 0.00 | 0.00 | 56 | 1009.0 |
| 20260507224408 | 65 | 68 | 5.0 | 6.0 | 0.00 | 0.00 | 0.00 | 59 | 1009.0 |
| 20260507223908 | 65 | 68 | 5.0 | 6.0 | 0.00 | 0.00 | 0.00 | 62 | 1009.0 |
| 20260507223409 | 65 | 22 | 6.0 | 6.0 | 0.00 | 0.00 | 0.00 | 62 | 1009.0 |
| 20260507222908 | 64 | 68 | 7.0 | 7.0 | 0.00 | 0.00 | 0.00 | 64 | 1010.0 |
| 20260507222408 | 64 | 68 | 6.0 | 6.0 | 0.00 | 0.00 | 0.00 | 63 | 1010.0 |
| 20260507221908 | 64 | 68 | 5.0 | 5.0 | 0.00 | 0.00 | 0.00 | 64 | 1010.0 |
| 20260507221408 | 64 | 90 | 8.0 | 9.0 | 0.00 | 0.00 | 0.00 | 68 | 1010.0 |
| 20260507220908 | 65 | 68 | 8.0 | 10.0 | 0.00 | 0.00 | 0.00 | 70 | 1010.0 |
| 20260507220408 | 65 | 68 | 4.0 | 4.0 | 0.00 | 0.00 | 0.00 | 70 | 1010.0 |
| 20260507215908 | 65 | 68 | 6.0 | 6.0 | 0.00 | 0.00 | 0.00 | 72 | 1010.0 |
| 20260507215408 | 65 | 90 | 2.0 | 2.0 | 0.00 | 0.00 | 0.00 | 72 | 1010.0 |
| 20260507214908 | 66 | 68 | 4.0 | 4.0 | 0.00 | 0.00 | 0.00 | 71 | 1010.0 |
| 20260507214409 | 66 | 68 | 7.0 | 8.0 | 0.00 | 0.00 | 0.00 | 70 | 1010.0 |
| 20260507213908 | 66 | 45 | 4.0 | 4.0 | 0.00 | 0.00 | 0.00 | 69 | 1010.0 |
| 20260507213409 | 67 | 68 | 5.0 | 5.0 | 0.00 | 0.00 | 0.00 | 67 | 1010.0 |
| 20260507212908 | 67 | 68 | 9.0 | 11.0 | 0.00 | 0.00 | 0.00 | 61 | 1010.0 |
| 20260507212409 | 67 | 90 | 5.0 | 5.0 | 0.00 | 0.00 | 0.00 | 58 | 1010.0 |
| 20260507211908 | 67 | 68 | 6.0 | 6.0 | 0.00 | 0.00 | 0.00 | 56 | 1010.0 |
| 20260507211408 | 67 | 68 | 5.0 | 5.0 | 0.00 | 0.00 | 0.00 | 54 | 1010.0 |
| 20260507210909 | 67 | 112 | 8.0 | 9.0 | 0.00 | 0.00 | 0.00 | 55 | 1010.0 |
| 20260507210408 | 67 | 68 | 6.0 | 7.0 | 0.00 | 0.00 | 0.00 | 53 | 1010.0 |
| 20260507205908 | 67 | 68 | 5.0 | 5.0 | 0.00 | 0.00 | 0.00 | 54 | 1010.0 |
| 20260507205409 | 67 | 68 | 5.0 | 5.0 | 0.00 | 0.00 | 0.00 | 56 | 1010.0 |
| 20260507204908 | 67 | 68 | 5.0 | 5.0 | 0.00 | 0.00 | 0.00 | 59 | 1010.0 |
| 20260507204408 | 67 | 112 | 7.0 | 8.0 | 0.00 | 0.00 | 0.00 | 59 | 1010.0 |
| 20260507203908 | 67 | 68 | 2.0 | 2.0 | 0.00 | 0.00 | 0.00 | 58 | 1010.0 |
| 20260507203408 | 67 | 68 | 5.0 | 5.0 | 0.00 | 0.00 | 0.00 | 56 | 1010.0 |
| 20260507202908 | 67 | 90 | 2.0 | 2.0 | 0.00 | 0.00 | 0.00 | 54 | 1010.0 |
| 20260507202409 | 67 | 202 | 5.0 | 6.0 | 0.00 | 0.00 | 0.00 | 50 | 1010.0 |
| 20260507201909 | 66 | 90 | 4.0 | 5.0 | 0.00 | 0.00 | 0.00 | 57 | 1010.0 |
| 20260507201408 | 67 | 180 | 5.0 | 5.0 | 0.00 | 0.00 | 0.00 | 62 | 1010.0 |
| 20260507200908 | 67 | 112 | 5.0 | 5.0 | 0.00 | 0.00 | 0.00 | 61 | 1010.0 |
| 20260507200409 | 67 | 112 | 4.0 | 5.0 | 0.00 | 0.00 | 0.00 | 64 | 1010.0 |
| 20260507195909 | 67 | 68 | 4.0 | 5.0 | 0.00 | 0.00 | 0.00 | 66 | 1011.0 |
| 20260507195408 | 67 | 90 | 5.0 | 6.0 | 0.00 | 0.00 | 0.00 | 65 | 1011.0 |
| 20260507194908 | 67 | 90 | 6.0 | 7.0 | 0.00 | 0.00 | 0.00 | 65 | 1011.0 |
| 20260507194409 | 67 | 90 | 5.0 | 6.0 | 0.00 | 0.00 | 0.00 | 60 | 1011.0 |
| 20260507193908 | 67 | 68 | 5.0 | 5.0 | 0.00 | 0.00 | 0.00 | 58 | 1011.0 |
| 20260507193408 | 67 | 112 | 3.0 | 4.0 | 0.00 | 0.00 | 0.00 | 57 | 1011.0 |
| 20260507192908 | 66 | 90 | 6.0 | 6.0 | 0.00 | 0.00 | 0.00 | 53 | 1011.0 |
| 20260507192408 | 66 | 90 | 0.0 | 0.0 | 0.00 | 0.00 | 0.00 | 54 | 1011.0 |
| 20260507191908 | 66 | 112 | 2.0 | 2.0 | 0.00 | 0.00 | 0.00 | 55 | 1011.0 |
| 20260507191409 | 66 | 68 | 5.0 | 5.0 | 0.00 | 0.00 | 0.00 | 54 | 1011.0 |
| 20260507190909 | 66 | 112 | 1.0 | 1.0 | 0.00 | 0.00 | 0.00 | 55 | 1011.0 |
| 20260507190409 | 66 | 112 | 4.0 | 4.0 | 0.00 | 0.00 | 0.00 | 54 | 1011.0 |
| 20260507185909 | 66 | 158 | 1.0 | 1.0 | 0.00 | 0.00 | 0.00 | 56 | 1010.0 |
| 20260507185410 | 66 | 180 | 2.0 | 2.0 | 0.00 | 0.00 | 0.00 | 57 | 1010.0 |
| 20260507184909 | 67 | 158 | 4.0 | 4.0 | 0.00 | 0.00 | 0.00 | 57 | 1010.0 |
| 20260507184408 | 67 | 158 | 5.0 | 5.0 | 0.00 | 0.00 | 0.00 | 59 | 1010.0 |
| 20260507183910 | 67 | 112 | 8.0 | 9.0 | 0.00 | 0.00 | 0.00 | 61 | 1010.0 |
| 20260507183408 | 67 | 112 | 2.0 | 2.0 | 0.00 | 0.00 | 0.00 | 60 | 1010.0 |
| 20260507182909 | 67 | 68 | 7.0 | 7.0 | 0.00 | 0.00 | 0.00 | 59 | 1010.0 |
| 20260507182409 | 67 | 112 | 4.0 | 5.0 | 0.00 | 0.00 | 0.00 | 59 | 1010.0 |
| 20260507181909 | 67 | 68 | 4.0 | 5.0 | 0.00 | 0.00 | 0.00 | 57 | 1010.0 |
| 20260507181410 | 67 | 112 | 4.0 | 5.0 | 0.00 | 0.00 | 0.00 | 61 | 1009.0 |
| 20260507180912 | 67 | 68 | 4.0 | 5.0 | 0.00 | 0.00 | 0.00 | 64 | 1009.0 |
| 20260507180410 | 67 | 90 | 6.0 | 6.0 | 0.00 | 0.00 | 0.00 | 63 | 1009.0 |
| 20260507175908 | 68 | 68 | 4.0 | 4.0 | 0.00 | 0.00 | 0.00 | 62 | 1009.0 |
| 20260507175408 | 68 | 68 | 5.0 | 5.0 | 0.00 | 0.00 | 0.00 | 61 | 1009.0 |
| 20260507174908 | 68 | 90 | 3.0 | 3.0 | 0.00 | 0.00 | 0.00 | 61 | 1009.0 |
| 20260507174409 | 68 | 68 | 4.0 | 4.0 | 0.00 | 0.00 | 0.00 | 61 | 1009.0 |
| 20260507173909 | 68 | 68 | 3.0 | 4.0 | 0.00 | 0.00 | 0.00 | 60 | 1009.0 |
| 20260507173410 | 68 | 68 | 2.0 | 2.0 | 0.00 | 0.00 | 0.00 | 62 | 1009.0 |
| 20260507172909 | 69 | 68 | 2.0 | 2.0 | 0.00 | 0.00 | 0.00 | 63 | 1009.0 |
| 20260507172409 | 69 | 68 | 5.0 | 5.0 | 0.00 | 0.00 | 0.00 | 61 | 1009.0 |
| 20260507171908 | 69 | 45 | 0.0 | 0.0 | 0.00 | 0.00 | 0.00 | 60 | 1009.0 |
| 20260507171408 | 69 | 45 | 0.0 | 0.0 | 0.00 | 0.00 | 0.00 | 59 | 1009.0 |
| 20260507170908 | 69 | 45 | 0.0 | 0.0 | 0.00 | 0.00 | 0.00 | 59 | 1009.0 |
| 20260507170409 | 70 | 68 | 2.0 | 2.0 | 0.00 | 0.00 | 0.00 | 59 | 1009.0 |
| 20260507165909 | 70 | 68 | 1.0 | 1.0 | 0.00 | 0.00 | 0.00 | 59 | 1009.0 |
| 20260507165408 | 70 | 0 | 6.0 | 6.0 | 0.00 | 0.00 | 0.00 | 58 | 1009.0 |
| 20260507164908 | 70 | 248 | 0.0 | 0.0 | 0.00 | 0.00 | 0.00 | 52 | 1009.0 |
| 20260507164408 | 70 | 248 | 0.0 | 0.0 | 0.00 | 0.00 | 0.00 | 49 | 1009.0 |
| 20260507163908 | 70 | 225 | 2.0 | 2.0 | 0.00 | 0.00 | 0.00 | 53 | 1009.0 |
| 20260507163408 | 70 | 248 | 0.0 | 0.0 | 0.00 | 0.00 | 0.00 | 51 | 1009.0 |
| 20260507162909 | 70 | 202 | 0.0 | 0.0 | 0.00 | 0.00 | 0.00 | 54 | 1009.0 |
| 20260507162408 | 70 | 292 | 2.0 | 2.0 | 0.00 | 0.00 | 0.00 | 54 | 1009.0 |
| 20260507161908 | 69 | 22 | 1.0 | 1.0 | 0.00 | 0.00 | 0.00 | 58 | 1009.0 |
| 20260507161409 | 69 | 315 | 4.0 | 5.0 | 0.00 | 0.00 | 0.00 | 59 | 1009.0 |
| 20260507160909 | 69 | 338 | 2.0 | 2.0 | 0.00 | 0.00 | 0.00 | 59 | 1009.0 |
| 20260507160410 | 69 | 292 | 2.0 | 2.0 | 0.00 | 0.00 | 0.00 | 61 | 1009.0 |
| 20260507155908 | 70 | 248 | 0.0 | 0.0 | 0.00 | 0.00 | 0.00 | 62 | 1010.0 |
| 20260507155411 | 70 | 248 | 4.0 | 5.0 | 0.00 | 0.00 | 0.00 | 61 | 1010.0 |
| 20260507154909 | 71 | 315 | 3.0 | 4.0 | 0.00 | 0.00 | 0.00 | 57 | 1010.0 |
| 20260507154408 | 71 | 270 | 4.0 | 4.0 | 0.00 | 0.00 | 0.00 | 57 | 1009.0 |
| 20260507153910 | 71 | 270 | 2.0 | 2.0 | 0.00 | 0.00 | 0.00 | 57 | 1009.0 |
| 20260507153409 | 72 | 248 | 5.0 | 6.0 | 0.00 | 0.00 | 0.00 | 56 | 1009.0 |
| 20260507152909 | 71 | 202 | 2.0 | 2.0 | 0.00 | 0.00 | 0.00 | 56 | 1010.0 |
| 20260507152409 | 70 | 292 | 0.0 | 0.0 | 0.00 | 0.00 | 0.00 | 57 | 1010.0 |
| 20260507151909 | 70 | 248 | 2.0 | 2.0 | 0.00 | 0.00 | 0.00 | 61 | 1010.0 |
| 20260507151409 | 70 | 292 | 5.0 | 5.0 | 0.00 | 0.00 | 0.00 | 62 | 1010.0 |
| 20260507150909 | 70 | 248 | 5.0 | 6.0 | 0.00 | 0.00 | 0.00 | 63 | 1010.0 |
| 20260507150408 | 70 | 248 | 1.0 | 1.0 | 0.00 | 0.00 | 0.00 | 63 | 1010.0 |
| 20260507145910 | 69 | 292 | 6.0 | 6.0 | 0.00 | 0.00 | 0.00 | 61 | 1010.0 |
| 20260507145408 | 70 | 270 | 4.0 | 4.0 | 0.00 | 0.00 | 0.00 | 60 | 1010.0 |
| 20260507144909 | 70 | 292 | 6.0 | 6.0 | 0.00 | 0.00 | 0.00 | 59 | 1010.0 |
| 20260507144409 | 70 | 292 | 4.0 | 4.0 | 0.00 | 0.00 | 0.00 | 57 | 1010.0 |
| 20260507143908 | 70 | 248 | 2.0 | 2.0 | 0.00 | 0.00 | 0.00 | 53 | 1010.0 |
| 20260507143409 | 70 | 202 | 6.0 | 6.0 | 0.00 | 0.00 | 0.00 | 54 | 1010.0 |
| 20260507142908 | 71 | 225 | 7.0 | 7.0 | 0.00 | 0.00 | 0.00 | 56 | 1010.0 |
| 20260507142409 | 71 | 225 | 6.0 | 7.0 | 0.00 | 0.00 | 0.00 | 54 | 1010.0 |
| 20260507141910 | 71 | 248 | 8.0 | 9.0 | 0.00 | 0.00 | 0.00 | 46 | 1010.0 |
| 20260507141409 | 71 | 248 | 9.0 | 11.0 | 0.00 | 0.00 | 0.00 | 45 | 1010.0 |
| 20260507140909 | 71 | 225 | 6.0 | 6.0 | 0.00 | 0.00 | 0.00 | 45 | 1010.0 |
| 20260507140409 | 71 | 225 | 6.0 | 6.0 | 0.00 | 0.00 | 0.00 | 51 | 1010.0 |
| 20260507135909 | 72 | 248 | 8.0 | 9.0 | 0.00 | 0.00 | 0.00 | 45 | 1010.0 |
| 20260507135410 | 72 | 248 | 6.0 | 6.0 | 0.00 | 0.00 | 0.00 | 46 | 1010.0 |
| 20260507134909 | 72 | 225 | 8.0 | 9.0 | 0.00 | 0.00 | 0.00 | 47 | 1010.0 |
| 20260507134409 | 72 | 292 | 6.0 | 6.0 | 0.00 | 0.00 | 0.00 | 54 | 1010.0 |
| 20260507133908 | 71 | 202 | 6.0 | 7.0 | 0.00 | 0.00 | 0.00 | 53 | 1010.0 |
| 20260507133408 | 71 | 202 | 7.0 | 7.0 | 0.00 | 0.00 | 0.00 | 54 | 1010.0 |
| 20260507132909 | 72 | 225 | 8.0 | 9.0 | 0.00 | 0.00 | 0.00 | 56 | 1010.0 |
| 20260507132409 | 72 | 202 | 8.0 | 10.0 | 0.00 | 0.00 | 0.00 | 55 | 1010.0 |
| 20260507131909 | 73 | 225 | 7.0 | 7.0 | 0.00 | 0.00 | 0.00 | 52 | 1010.0 |
| 20260507131409 | 73 | 225 | 6.0 | 6.0 | 0.00 | 0.00 | 0.00 | 49 | 1010.0 |
| 20260507130908 | 73 | 180 | 5.0 | 6.0 | 0.00 | 0.00 | 0.00 | 43 | 1010.0 |
| 20260507130408 | 73 | 202 | 6.0 | 6.0 | 0.00 | 0.00 | 0.00 | 46 | 1010.0 |
| 20260507125909 | 73 | 202 | 6.0 | 6.0 | 0.00 | 0.00 | 0.00 | 45 | 1010.0 |
| 20260507125409 | 73 | 248 | 8.0 | 9.0 | 0.00 | 0.00 | 0.00 | 46 | 1010.0 |
| 20260507124908 | 73 | 202 | 8.0 | 8.0 | 0.00 | 0.00 | 0.00 | 45 | 1010.0 |
| 20260507124408 | 74 | 248 | 6.0 | 6.0 | 0.00 | 0.00 | 0.00 | 44 | 1010.0 |
| 20260507123909 | 75 | 248 | 6.0 | 6.0 | 0.00 | 0.00 | 0.00 | 42 | 1010.0 |
| 20260507123408 | 77 | 248 | 8.0 | 9.0 | 0.00 | 0.00 | 0.00 | 37 | 1010.0 |
| 20260507122909 | 77 | 180 | 5.0 | 6.0 | 0.00 | 0.00 | 0.00 | 33 | 1009.0 |
| 20260507122408 | 77 | 248 | 3.0 | 3.0 | 0.00 | 0.00 | 0.00 | 35 | 1009.0 |
| 20260507121909 | 77 | 135 | 3.0 | 4.0 | 0.00 | 0.00 | 0.00 | 36 | 1009.0 |
| 20260507121408 | 78 | 68 | 6.0 | 6.0 | 0.00 | 0.00 | 0.00 | 37 | 1010.0 |
| 20260507120908 | 79 | 68 | 4.0 | 4.0 | 0.00 | 0.00 | 0.00 | 37 | 1010.0 |
| 20260507120409 | 79 | 112 | 3.0 | 3.0 | 0.00 | 0.00 | 0.00 | 33 | 1010.0 |
| 20260507115908 | 79 | 112 | 1.0 | 1.0 | 0.00 | 0.00 | 0.00 | 35 | 1010.0 |
| 20260507115409 | 78 | 112 | 5.0 | 5.0 | 0.00 | 0.00 | 0.00 | 33 | 1010.0 |
| 20260507114908 | 77 | 22 | 0.0 | 0.0 | 0.00 | 0.00 | 0.00 | 33 | 1010.0 |
| 20260507114408 | 76 | 68 | 0.0 | 0.0 | 0.00 | 0.00 | 0.00 | 34 | 1010.0 |
| 20260507113908 | 75 | 112 | 2.0 | 2.0 | 0.00 | 0.00 | 0.00 | 31 | 1010.0 |
| 20260507113408 | 75 | 112 | 6.0 | 6.0 | 0.00 | 0.00 | 0.00 | 29 | 1010.0 |
| 20260507112909 | 75 | 68 | 5.0 | 5.0 | 0.00 | 0.00 | 0.00 | 25 | 1010.0 |
| 20260507112409 | 75 | 68 | 5.0 | 5.0 | 0.00 | 0.00 | 0.00 | 34 | 1010.0 |
| 20260507111909 | 74 | 45 | 1.0 | 1.0 | 0.00 | 0.00 | 0.00 | 36 | 1010.0 |
| 20260507111409 | 73 | 90 | 4.0 | 5.0 | 0.00 | 0.00 | 0.00 | 35 | 1010.0 |
| 20260507110909 | 73 | 68 | 6.0 | 7.0 | 0.00 | 0.00 | 0.00 | 38 | 1010.0 |
| 20260507110409 | 73 | 90 | 4.0 | 5.0 | 0.00 | 0.00 | 0.00 | 37 | 1010.0 |
| 20260507105909 | 73 | 68 | 6.0 | 7.0 | 0.00 | 0.00 | 0.00 | 38 | 1010.0 |
| 20260507105408 | 72 | 112 | 0.0 | 0.0 | 0.00 | 0.00 | 0.00 | 37 | 1010.0 |
| 20260507104912 | 72 | 112 | 4.0 | 4.0 | 0.00 | 0.00 | 0.00 | 38 | 1010.0 |
| 20260507104409 | 73 | 68 | 7.0 | 7.0 | 0.00 | 0.00 | 0.00 | 38 | 1010.0 |
| 20260507103908 | 73 | 90 | 6.0 | 6.0 | 0.00 | 0.00 | 0.00 | 36 | 1010.0 |
| 20260507102955 | 73 | 112 | 5.0 | 5.0 | 0.00 | 0.00 | 0.00 | 33 | 1011.0 |
| 20260507102408 | 73 | 90 | 6.0 | 6.0 | 0.00 | 0.00 | 0.00 | 37 | 1011.0 |
| 20260507101909 | 73 | 68 | 5.0 | 5.0 | 0.00 | 0.00 | 0.00 | 38 | 1011.0 |
| 20260507101409 | 72 | 45 | 4.0 | 5.0 | 0.00 | 0.00 | 0.00 | 42 | 1011.0 |
| 20260507100908 | 72 | 22 | 0.0 | 0.0 | 0.00 | 0.00 | 0.00 | 42 | 1011.0 |
| 20260507100409 | 71 | 45 | 1.0 | 1.0 | 0.00 | 0.00 | 0.00 | 45 | 1011.0 |
| 20260507095909 | 71 | 112 | 3.0 | 3.0 | 0.00 | 0.00 | 0.00 | 43 | 1011.0 |
| 20260507095409 | 71 | 112 | 2.0 | 2.0 | 0.00 | 0.00 | 0.00 | 43 | 1011.0 |
| 20260507094909 | 71 | 68 | 2.0 | 2.0 | 0.00 | 0.00 | 0.00 | 43 | 1011.0 |
| 20260507094409 | 71 | 68 | 5.0 | 5.0 | 0.00 | 0.00 | 0.00 | 42 | 1011.0 |
| 20260507093908 | 71 | 68 | 5.0 | 5.0 | 0.00 | 0.00 | 0.00 | 42 | 1011.0 |
| 20260507093410 | 71 | 45 | 5.0 | 5.0 | 0.00 | 0.00 | 0.00 | 39 | 1011.0 |
| 20260507092908 | 70 | 68 | 6.0 | 6.0 | 0.00 | 0.00 | 0.00 | 41 | 1011.0 |
| 20260507092409 | 70 | 68 | 4.0 | 5.0 | 0.00 | 0.00 | 0.00 | 43 | 1011.0 |
| 20260507091908 | 70 | 68 | 2.0 | 2.0 | 0.00 | 0.00 | 0.00 | 43 | 1011.0 |
| 20260507091409 | 71 | 68 | 4.0 | 4.0 | 0.00 | 0.00 | 0.00 | 43 | 1010.0 |
| 20260507090908 | 71 | 68 | 4.0 | 5.0 | 0.00 | 0.00 | 0.00 | 40 | 1010.0 |
| 20260507090408 | 71 | 112 | 2.0 | 2.0 | 0.00 | 0.00 | 0.00 | 42 | 1010.0 |
| 20260507085909 | 70 | 68 | 3.0 | 4.0 | 0.00 | 0.00 | 0.00 | 44 | 1011.0 |
| 20260507085409 | 70 | 68 | 5.0 | 5.0 | 0.00 | 0.00 | 0.00 | 45 | 1011.0 |
| 20260507084908 | 70 | 22 | 4.0 | 4.0 | 0.00 | 0.00 | 0.00 | 44 | 1011.0 |
| 20260507084409 | 70 | 68 | 3.0 | 3.0 | 0.00 | 0.00 | 0.00 | 47 | 1011.0 |
| 20260507083908 | 70 | 68 | 2.0 | 2.0 | 0.00 | 0.00 | 0.00 | 49 | 1011.0 |
| 20260507083408 | 70 | 0 | 4.0 | 5.0 | 0.00 | 0.00 | 0.00 | 49 | 1011.0 |
| 20260507082908 | 71 | 68 | 3.0 | 4.0 | 0.00 | 0.00 | 0.00 | 49 | 1011.0 |
| 20260507082410 | 72 | 90 | 3.0 | 3.0 | 0.00 | 0.00 | 0.00 | 46 | 1011.0 |
| 20260507081911 | 72 | 68 | 3.0 | 3.0 | 0.00 | 0.00 | 0.00 | 43 | 1011.0 |
| 20260507081408 | 72 | 68 | 5.0 | 5.0 | 0.00 | 0.00 | 0.00 | 44 | 1011.0 |
| 20260507080909 | 71 | 270 | 2.0 | 2.0 | 0.00 | 0.00 | 0.00 | 43 | 1011.0 |
| 20260507080408 | 70 | 0 | 2.0 | 2.0 | 0.00 | 0.00 | 0.00 | 47 | 1011.0 |
| 20260507075908 | 69 | 225 | 0.0 | 0.0 | 0.00 | 0.00 | 0.00 | 51 | 1011.0 |
| 20260507075408 | 68 | 112 | 2.0 | 2.0 | 0.00 | 0.00 | 0.00 | 51 | 1011.0 |
| 20260507074912 | 67 | 90 | 3.0 | 3.0 | 0.00 | 0.00 | 0.00 | 54 | 1011.0 |
| 20260507074409 | 66 | 90 | 1.0 | 1.0 | 0.00 | 0.00 | 0.00 | 58 | 1011.0 |
| 20260507073908 | 65 | 68 | 3.0 | 4.0 | 0.00 | 0.00 | 0.00 | 63 | 1011.0 |
| 20260507073408 | 65 | 68 | 5.0 | 5.0 | 0.00 | 0.00 | 0.00 | 63 | 1011.0 |
| 20260507072908 | 65 | 68 | 4.0 | 4.0 | 0.00 | 0.00 | 0.00 | 69 | 1010.0 |
| 20260507072408 | 65 | 112 | 2.0 | 2.0 | 0.00 | 0.00 | 0.00 | 69 | 1010.0 |
| 20260507071908 | 64 | 68 | 4.0 | 5.0 | 0.00 | 0.00 | 0.00 | 69 | 1010.0 |
| 20260507071409 | 64 | 68 | 7.0 | 8.0 | 0.00 | 0.00 | 0.00 | 72 | 1011.0 |
| 20260507070908 | 64 | 68 | 5.0 | 5.0 | 0.00 | 0.00 | 0.00 | 73 | 1011.0 |
| 20260507070409 | 65 | 68 | 6.0 | 6.0 | 0.00 | 0.00 | 0.00 | 72 | 1011.0 |
| 20260507065909 | 64 | 112 | 7.0 | 8.0 | 0.00 | 0.00 | 0.00 | 72 | 1011.0 |
| 20260507065408 | 64 | 68 | 4.0 | 4.0 | 0.00 | 0.00 | 0.00 | 72 | 1011.0 |
| 20260507064910 | 64 | 68 | 6.0 | 6.0 | 0.00 | 0.00 | 0.00 | 73 | 1011.0 |
| 20260507064408 | 64 | 68 | 7.0 | 7.0 | 0.00 | 0.00 | 0.00 | 71 | 1011.0 |
| 20260507063908 | 65 | 90 | 4.0 | 5.0 | 0.00 | 0.00 | 0.00 | 71 | 1011.0 |
| 20260507063409 | 65 | 90 | 7.0 | 8.0 | 0.00 | 0.00 | 0.00 | 69 | 1011.0 |
| 20260507062908 | 65 | 68 | 2.0 | 2.0 | 0.00 | 0.00 | 0.00 | 68 | 1011.0 |
| 20260507062408 | 65 | 68 | 0.0 | 0.0 | 0.00 | 0.00 | 0.00 | 68 | 1011.0 |
| 20260507061908 | 64 | 0 | 1.0 | 1.0 | 0.00 | 0.00 | 0.00 | 70 | 1011.0 |
| 20260507061410 | 64 | 315 | 0.0 | 0.0 | 0.00 | 0.00 | 0.00 | 70 | 1011.0 |
| 20260507060908 | 64 | 338 | 2.0 | 2.0 | 0.00 | 0.00 | 0.00 | 70 | 1011.0 |
| 20260507060409 | 63 | 315 | 0.0 | 0.0 | 0.00 | 0.00 | 0.00 | 71 | 1011.0 |
| 20260507055909 | 64 | 292 | 1.0 | 1.0 | 0.00 | 0.00 | 0.00 | 72 | 1011.0 |
| 20260507055408 | 64 | 315 | 2.0 | 2.0 | 0.00 | 0.00 | 0.00 | 71 | 1011.0 |
| 20260507054908 | 64 | 338 | 1.0 | 1.0 | 0.00 | 0.00 | 0.00 | 69 | 1011.0 |
| 20260507054412 | 63 | 45 | 0.0 | 0.0 | 0.00 | 0.00 | 0.00 | 68 | 1011.0 |
| 20260507053908 | 63 | 45 | 0.0 | 0.0 | 0.00 | 0.00 | 0.00 | 68 | 1011.0 |
| 20260507053408 | 63 | 45 | 0.0 | 0.0 | 0.00 | 0.00 | 0.00 | 68 | 1011.0 |
| 20260507052909 | 63 | 45 | 0.0 | 0.0 | 0.00 | 0.00 | 0.00 | 69 | 1010.0 |
| 20260507052408 | 63 | 45 | 1.0 | 1.0 | 0.00 | 0.00 | 0.00 | 70 | 1010.0 |
| 20260507051908 | 63 | 45 | 2.0 | 2.0 | 0.00 | 0.00 | 0.00 | 68 | 1010.0 |
| 20260507051409 | 62 | 45 | 0.0 | 0.0 | 0.00 | 0.00 | 0.00 | 68 | 1010.0 |
| 20260507050908 | 62 | 45 | 0.0 | 0.0 | 0.00 | 0.00 | 0.00 | 69 | 1010.0 |
| 20260507050408 | 61 | 45 | 2.0 | 2.0 | 0.00 | 0.00 | 0.00 | 68 | 1010.0 |
| 20260507045910 | 61 | 90 | 1.0 | 1.0 | 0.00 | 0.00 | 0.00 | 69 | 1010.0 |
| 20260507045408 | 61 | 68 | 4.0 | 5.0 | 0.00 | 0.00 | 0.00 | 68 | 1010.0 |
| 20260507044909 | 61 | 45 | 0.0 | 0.0 | 0.00 | 0.00 | 0.00 | 69 | 1010.0 |
| 20260507044408 | 61 | 45 | 0.0 | 0.0 | 0.00 | 0.00 | 0.00 | 69 | 1010.0 |
| 20260507043909 | 60 | 68 | 0.0 | 0.0 | 0.00 | 0.00 | 0.00 | 70 | 1010.0 |
| 20260507043408 | 60 | 68 | 4.0 | 4.0 | 0.00 | 0.00 | 0.00 | 71 | 1010.0 |
| 20260507042909 | 59 | 112 | 2.0 | 2.0 | 0.00 | 0.00 | 0.00 | 72 | 1009.0 |
| 20260507042408 | 59 | 90 | 2.0 | 2.0 | 0.00 | 0.00 | 0.00 | 73 | 1009.0 |
| 20260507041908 | 59 | 68 | 3.0 | 3.0 | 0.00 | 0.00 | 0.00 | 74 | 1009.0 |
| 20260507041408 | 59 | 68 | 4.0 | 4.0 | 0.00 | 0.00 | 0.00 | 75 | 1009.0 |
| 20260507040908 | 59 | 45 | 2.0 | 2.0 | 0.00 | 0.00 | 0.00 | 76 | 1009.0 |
| 20260507040409 | 59 | 68 | 0.0 | 0.0 | 0.00 | 0.00 | 0.00 | 77 | 1009.0 |
| 20260507035908 | 59 | 68 | 4.0 | 5.0 | 0.00 | 0.00 | 0.00 | 77 | 1009.0 |
| 20260507035409 | 59 | 68 | 4.0 | 5.0 | 0.00 | 0.00 | 0.00 | 77 | 1009.0 |
| 20260507034909 | 59 | 68 | 2.0 | 2.0 | 0.00 | 0.00 | 0.00 | 76 | 1009.0 |
| 20260507034408 | 59 | 68 | 3.0 | 3.0 | 0.00 | 0.00 | 0.00 | 76 | 1009.0 |
| 20260507033908 | 59 | 68 | 5.0 | 5.0 | 0.00 | 0.00 | 0.00 | 76 | 1009.0 |